CW3319 Weather Reports


Display with metric or nautical units.
time (UTC)temp
F
wind
direction
speed
MPH
gust
MPH
rain 1hr
in
rain 24hr
in
rain mn
in
humidity
%
barometer
mb
20260906074902 71 70 1.0 2.0 0.00 0.00 0.00 91 1014.7
20260906073932 71 80 0.0 0.0 0.00 0.00 0.00 90 1014.6
20260906072932 71 76 0.0 1.0 0.00 0.00 0.00 90 1014.7
20260906071902 71 86 0.0 1.0 0.00 0.00 0.00 90 1014.8
20260906070902 72 97 0.0 2.0 0.00 0.00 0.00 89 1014.8
20260906065932 72 68 1.0 2.0 0.00 0.00 0.00 89 1014.7
20260906065003 72 73 2.0 3.0 0.00 0.00 0.00 89 1014.7
20260906063901 72 75 2.0 3.0 0.00 0.00 0.00 88 1014.9
20260906062902 72 74 3.0 4.0 0.00 0.00 0.00 88 1014.8
20260906061902 72 78 2.0 3.0 0.00 0.00 0.00 88 1014.9
20260906060902 73 84 1.0 2.0 0.00 0.00 0.00 87 1015.0
20260906055902 73 75 1.0 2.0 0.00 0.00 0.00 87 1015.0
20260906054902 73 69 2.0 3.0 0.00 0.00 0.00 87 1014.9
20260906053902 73 78 0.0 0.0 0.00 0.00 0.00 86 1014.9
20260906052903 74 71 0.0 0.0 0.00 0.00 0.00 86 1014.8
20260906051902 74 77 0.0 2.0 0.00 0.00 0.00 86 1014.9
20260906050902 74 75 0.0 0.0 0.00 0.00 0.00 85 1014.9
20260906045902 74 78 0.0 0.0 0.00 0.00 0.00 85 1014.9
20260906044902 74 82 0.0 1.0 0.00 0.00 0.00 85 1015.1
20260906043902 74 93 0.0 0.0 0.00 0.00 0.00 85 1015.1
20260906042902 74 121 0.0 0.0 0.00 0.00 0.00 85 1015.1
20260906041902 74 121 0.0 0.0 0.00 0.00 0.00 85 1015.1
20260906040902 74 121 0.0 0.0 0.00 0.00 0.00 85 1015.2
20260906035902 74 92 0.0 0.0 0.00 0.00 0.00 85 1015.2
20260906034902 74 80 0.0 0.0 0.00 0.00 0.00 85 1015.1
20260906033902 74 80 0.0 0.0 0.00 0.00 0.00 85 1015.2
20260906032902 74 80 0.0 0.0 0.00 0.00 0.00 85 1015.2
20260906031902 74 80 0.0 0.0 0.00 0.00 0.00 85 1015.2
20260906030932 74 229 0.0 0.0 0.00 0.00 0.00 84 1015.3
20260906025902 74 229 0.0 0.0 0.00 0.00 0.00 84 1015.4
20260906024902 74 229 0.0 0.0 0.00 0.00 0.00 83 1015.1
20260906023902 74 229 0.0 0.0 0.00 0.00 0.00 82 1014.7
20260906022902 75 229 0.0 0.0 0.00 0.00 0.00 82 1014.8
20260906021902 75 229 0.0 0.0 0.00 0.00 0.00 81 1014.6
20260906020902 75 229 0.0 0.0 0.00 0.00 0.00 80 1014.4
20260906015902 76 153 0.0 0.0 0.00 0.00 0.00 79 1014.0
20260906014902 76 91 0.0 0.0 0.00 0.00 0.00 79 1013.8
20260906013902 76 57 0.0 0.0 0.00 0.00 0.00 78 1013.5
20260906012902 77 98 0.0 0.0 0.00 0.00 0.00 77 1013.3
20260906011902 77 123 1.0 2.0 0.00 0.00 0.00 77 1013.4
20260906010902 78 152 1.0 3.0 0.00 0.00 0.00 76 1013.2
20260906005902 78 82 1.0 2.0 0.00 0.00 0.00 75 1012.9
20260906004902 79 105 2.0 4.0 0.00 0.00 0.00 75 1012.8
20260906003902 79 95 2.0 4.0 0.00 0.00 0.00 74 1012.6
20260906002932 80 94 1.0 4.0 0.00 0.00 0.00 73 1012.8
20260906001902 80 73 3.0 7.0 0.00 0.00 0.00 73 1012.7
20260906000901 81 93 1.0 4.0 0.00 0.00 0.00 71 1012.7
20260905235902 82 131 1.0 3.0 0.00 0.00 0.00 70 1012.7
20260905234903 82 63 4.0 7.0 0.00 0.00 0.00 69 1012.4
20260905233901 82 70 3.0 5.0 0.00 0.00 0.00 69 1012.4
20260905232902 83 54 2.0 4.0 0.00 0.00 0.00 68 1012.2
20260905231902 83 72 4.0 7.0 0.00 0.00 0.00 67 1012.1
20260905231002 83 63 7.0 14.0 0.00 0.00 0.00 66 1011.9
20260905225931 84 71 8.0 12.0 0.00 0.00 0.00 66 1012.0
20260905224902 84 78 6.0 12.0 0.00 0.00 0.00 66 1012.2
20260905223932 84 71 7.0 10.0 0.00 0.00 0.00 66 1012.0
20260905222902 84 94 4.0 7.0 0.00 0.00 0.00 65 1012.1
20260905221902 85 59 5.0 8.0 0.00 0.00 0.00 65 1012.0
20260905220902 85 63 6.0 9.0 0.00 0.00 0.00 64 1011.7
20260905215902 85 85 8.0 14.0 0.00 0.00 0.00 64 1011.9
20260905214902 85 77 8.0 13.0 0.00 0.00 0.00 65 1012.0
20260905213902 84 55 7.0 11.0 0.00 0.00 0.00 65 1012.0
20260905212902 84 82 9.0 13.0 0.00 0.00 0.00 65 1012.1
20260905211902 84 85 6.0 11.0 0.00 0.00 0.00 66 1012.3
20260905210902 84 33 2.0 3.0 0.00 0.00 0.00 67 1012.5
20260905205902 83 57 5.0 8.0 0.00 0.00 0.00 67 1012.8
20260905204901 84 86 6.0 11.0 0.00 0.00 0.00 67 1013.1
20260905203903 84 54 1.0 3.0 0.00 0.00 0.00 67 1013.2
20260905202901 84 68 4.0 8.0 0.00 0.00 0.00 66 1013.4
20260905201902 84 104 1.0 3.0 0.00 0.00 0.00 66 1013.6
20260905200903 85 17 2.0 5.0 0.00 0.00 0.00 65 1013.7
20260905195902 85 50 1.0 2.0 0.00 0.00 0.00 65 1013.8
20260905194903 85 29 0.0 1.0 0.00 0.00 0.00 66 1013.9
20260905193901 86 73 3.0 6.0 0.00 0.00 0.00 65 1014.0
20260905192903 86 47 2.0 6.0 0.00 0.00 0.00 65 1014.0
20260905191901 86 57 2.0 4.0 0.00 0.00 0.00 65 1014.0
20260905190902 85 41 2.0 3.0 0.00 0.00 0.00 66 1014.1
20260905185931 85 59 1.0 2.0 0.00 0.00 0.00 67 1014.2
20260905184933 85 287 0.0 1.0 0.00 0.00 0.00 66 1014.1
20260905183931 85 71 4.0 5.0 0.00 0.00 0.00 68 1013.9
20260905182902 84 66 4.0 10.0 0.00 0.00 0.00 70 1014.0
20260905181902 83 165 0.0 1.0 0.00 0.00 0.00 72 1014.1
20260905180902 82 96 1.0 3.0 0.00 0.00 0.00 73 1014.2
20260905175902 82 88 2.0 4.0 0.00 0.00 0.00 73 1014.3
20260905174902 82 92 1.0 3.0 0.00 0.00 0.00 74 1014.4
20260905173903 81 75 2.0 3.0 0.00 0.00 0.00 76 1014.6
20260905172901 81 70 0.0 2.0 0.00 0.00 0.00 76 1014.8
20260905171902 80 60 2.0 3.0 0.00 0.00 0.00 78 1014.9
20260905170902 79 26 1.0 2.0 0.00 0.00 0.00 81 1014.8
20260905165933 78 103 2.0 3.0 0.00 0.00 0.00 84 1014.8
20260905164901 76 76 4.0 6.0 0.00 0.00 0.00 88 1015.0
20260905163902 74 36 1.0 2.0 0.00 0.00 0.00 91 1015.1
20260905162902 73 68 1.0 3.0 0.00 0.00 0.00 93 1015.1
20260905161902 72 111 1.0 2.0 0.00 0.00 0.00 94 1015.2
20260905160902 72 220 0.0 0.0 0.00 0.00 0.00 94 1015.0
20260905155902 72 306 0.0 0.0 0.00 0.00 0.00 94 1015.0
20260905154903 72 73 5.0 9.0 0.00 0.00 0.00 95 1014.5
20260905153901 71 67 5.0 8.0 0.00 0.00 0.00 96 1014.5
20260905152903 71 61 3.0 4.0 0.00 0.00 0.00 96 1014.6
20260905151903 71 64 3.0 4.0 0.00 0.00 0.00 96 1014.6
20260905150902 71 66 6.0 8.0 0.00 0.00 0.00 96 1014.5
20260905145902 70 76 3.0 6.0 0.00 0.00 0.00 96 1014.5
20260905144902 70 58 2.0 3.0 0.00 0.00 0.00 96 1014.5
20260905143901 70 56 3.0 4.0 0.00 0.00 0.00 96 1014.6
20260905142903 70 64 2.0 3.0 0.00 0.00 0.00 96 1014.6
20260905141902 70 65 0.0 0.0 0.00 0.00 0.00 96 1014.6
20260905140903 70 63 1.0 3.0 0.00 0.00 0.00 97 1014.6
20260905135903 70 76 3.0 4.0 0.00 0.00 0.00 97 1014.5
20260905134902 70 60 0.0 2.0 0.00 0.00 0.00 96 1014.5
20260905133902 69 73 2.0 5.0 0.00 0.00 0.00 96 1014.3
20260905132932 69 69 0.0 0.0 0.00 0.00 0.00 96 1014.1
20260905131902 69 53 1.0 2.0 0.00 0.00 0.00 96 1013.8
20260905130902 69 72 4.0 6.0 0.00 0.00 0.00 96 1013.5
20260905125903 69 71 5.0 8.0 0.00 0.00 0.00 96 1013.2
20260905124902 69 64 3.0 5.0 0.00 0.00 0.00 96 1012.9
20260905123902 69 59 3.0 5.0 0.00 0.00 0.00 96 1012.9
20260905122902 69 44 1.0 2.0 0.00 0.00 0.00 96 1013.0
20260905121902 69 59 2.0 4.0 0.00 0.00 0.00 96 1013.1
20260905120932 69 22 1.0 2.0 0.00 0.00 0.00 96 1013.0
20260905115902 73 42 0.0 0.0 0.00 0.00 0.00 95 1006.6
20260905114902 73 42 0.0 0.0 0.00 0.00 0.00 95 1006.6
20260905113902 73 42 0.0 0.0 0.00 0.00 0.00 95 1006.6
20260905112902 73 42 0.0 0.0 0.00 0.00 0.00 95 1006.6
20260905111902 73 42 0.0 0.0 0.00 0.00 0.00 95 1006.6
20260905110902 73 42 0.0 0.0 0.00 0.00 0.00 95 1006.6
20260905105902 73 42 0.0 0.0 0.00 0.00 0.00 95 1006.6
20260905104901 73 42 0.0 0.0 0.00 0.00 0.00 95 1006.6
20260905103902 73 42 0.0 0.0 0.00 0.00 0.00 95 1006.6
20260905102902 73 42 0.0 0.0 0.00 0.00 0.00 95 1006.6
20260905101901 73 42 0.0 0.0 0.00 0.00 0.00 95 1006.6
20260905100902 73 42 0.0 0.0 0.00 0.00 0.00 95 1006.6
20260905095902 73 42 0.0 0.0 0.00 0.00 0.00 95 1006.6
20260905094902 73 42 0.0 0.0 0.00 0.00 0.00 95 1006.6
20260905093901 73 42 0.0 0.0 0.00 0.00 0.00 95 1006.6
20260905092902 73 42 0.0 0.0 0.00 0.00 0.00 95 1006.6
20260905091902 73 42 0.0 0.0 0.00 0.00 0.00 95 1006.6
20260905090902 73 42 0.0 0.0 0.00 0.00 0.00 95 1006.6
20260905085902 73 42 0.0 0.0 0.00 0.00 0.00 95 1006.6
20260905084902 73 42 0.0 0.0 0.00 0.00 0.00 95 1006.6
20260905083902 73 42 0.0 0.0 0.00 0.00 0.00 95 1006.6
20260905082932 73 42 0.0 0.0 0.00 0.00 0.00 95 1006.6
20260905081902 73 42 0.0 0.0 0.00 0.00 0.00 95 1006.6
20260905080901 73 42 0.0 0.0 0.00 0.00 0.00 95 1006.6
20260905075902 73 42 0.0 0.0 0.00 0.00 0.00 95 1006.6